[Iaude] MPEC D63: 2024 DQ [a=0.98,e=0.03,i=4.6,H=24.6]

mpec at cfa.harvard.edu mpec at cfa.harvard.edu
Mon Feb 19 05:37:51 EST 2024


M.P.E.C. 2024-D63                             Issued 2024 February 19, 10:36 UT

     The Minor Planet Electronic Circulars contain information on unusual
         minor planets, routine data on comets and natural satellites,
         and occasional editorial announcements.  They are published
    on behalf of Division F of the International Astronomical Union by the
          Minor Planet Center, Smithsonian Astrophysical Observatory,
                          Cambridge, MA 02138, U.S.A.
			  
             Prepared using the Tamkin Foundation Computer Network

                              MPC at CFA.HARVARD.EDU
            URL https://www.minorplanetcenter.net/    ISSN 1523-6714

                                    2024 DQ                                     


Observations:
     K24D00Q 1C2024 02 16.47564115 20 25.512+52 56 37.32         20.67GVED063G96
     K24D00Q 1C2024 02 16.48590615 20 26.711+52 56 46.86         20.28GVED063G96
     K24D00Q 1C2024 02 16.49103015 20 27.280+52 56 51.18         20.86GVED063G96
     K24D00Q*KC2024 02 16.53803715 20 32.478+52 57 29.16         20.72GVED063I52
     K24D00Q KC2024 02 16.54113215 20 32.834+52 57 31.46         20.69GVED063I52
     K24D00Q KC2024 02 16.54422815 20 33.151+52 57 33.16         20.70GVED063I52
     K24D00Q KC2024 02 16.54732915 20 33.515+52 57 36.04         21.28GVED063I52
     K24D00Q KC2024 02 17.04329415 22 16.85 +53 02 22.9          20.8 GVED063L01
     K24D00Q pC2024 02 17.04665815 22 17.40 +53 02 26.2          21.4 GVED063L01
     K24D00Q pC2024 02 17.05002415 22 17.88 +53 02 30.1          21.6 GVED063L01
     K24D00Q KC2024 02 17.05377515 22 18.47 +53 02 34.4          20.9 GVED063L01
     K24D00Q KB2024 02 17.18929 15 22 36.42 +53 04 36.6          20.8 RZED063106
     K24D00Q KB2024 02 17.19367 15 22 36.95 +53 04 40.4          20.8 RZED063106
     K24D00Q KB2024 02 17.19805 15 22 37.48 +53 04 43.7          19.9 RZED063106
     K24D00Q KB2024 02 17.20244 15 22 38.16 +53 04 44.7          20.4 RZED063106
     K24D00Q KC2024 02 17.38806615 23 20.49 +53 06 59.0          21.5 GVED063H21
     K24D00Q KC2024 02 17.39366115 23 21.18 +53 07 04.7          20.7 GVED063H21
     K24D00Q KC2024 02 17.39645815 23 21.51 +53 07 07.4          20.8 GVED063H21
     K24D00Q KB2024 02 17.44913 15 23 29.64 +53 07 52.5          20.3 GVED063734
     K24D00Q KB2024 02 17.45998 15 23 30.94 +53 08 02.3          21.2 GVED063734
     K24D00Q KB2024 02 17.47083 15 23 32.25 +53 08 10.9          20.7 GVED063734
     K24D00Q KB2024 02 17.48167 15 23 33.56 +53 08 19.9          21.2 GVED063734
     K24D00Q KC2024 02 19.41999315 29 55.82 +53 31 05.6          22.0 GVED063H21
     K24D00Q KC2024 02 19.42278915 29 56.17 +53 31 07.8          21.4 GVED063H21
     K24D00Q KC2024 02 19.42558615 29 56.50 +53 31 10.5          21.4 GVED063H21

Observer details:
106 Crni Vrh.  Observer H. Mikuz.  0.60-m f/3.3 reflector + CMO.
734 Farpoint Observatory, Eskridge.  Observers D. Cromer, G. Hug, D. Goodin,
    R. Valentine.  Measurer D. Cromer.  0.69-m f/3.54 reflector + CMO.
G96 Mt. Lemmon Survey.  Observers V. F. Carvajal, J. K. Hogan.  Measurers T.
    Beuden, V. F. Carvajal, D. Fay, J. B. Fazekas, D. C. Fuls, A. R. Gibbs, A.
    D. Grauer, H. Groeller, J. K. Hogan, R. A. Kowalski, S. M. Larson, G. J.
    Leonard, D. Rankin, R. L. Seaman, F. C. Shelly, K. W. Wierzchos.  1.5-m
    reflector + 10K CCD.
H21 Astronomical Research Observatory, Westfield.  Observer R. Holmes.
    Measurers T. Linder, R. Holmes, L. Horn.  0.76-m f/3.0 astrograph + CCD.
I52 Steward Observatory, Mt. Lemmon Station.  Observer J. B. Fazekas.
    Measurers E. C. Beshore, D. Fay, J. B. Fazekas, D. C. Fuls, A. R. Gibbs,
    A. D. Grauer, H. Groeller, J. K. Hogan, R. A. Kowalski, S. M. Larson, G.
    J. Leonard, D. Rankin, R. L. Seaman, F. C. Shelly, K. W. Wierzchos.  1.0-m
    prime focus + CCD.
L01 Visnjan Observatory, Tican.  Observer K. Korlevic.  1.0-m f/2.9 reflector
    + CCD.

Orbital elements:
2024 DQ                                                  Earth MOID = 0.0158 AU
Epoch 2024 Mar. 31.0 TT = JDT 2460400.5                 MPC                     
M 263.73225              (2000.0)            P               Q                  
n   1.01406485     Peri.  273.79185     +0.35228518     +0.93560468             
a   0.9812031      Node    16.89206     -0.82382972     +0.32177833             
e   0.0328102      Incl.    4.58294     -0.44407177     +0.14526731             
P   0.97           H   24.66          G   0.15           U   6                  
Residuals in seconds of arc
240216 G96  0.1+  0.1+    240217 L01  0.4-  0.1-    240217 734  0.1+  0.1-
240216 G96  0.2+  0.2+    240217 L01  0.1-  0.2+    240217 734  0.1+  0.3+
240216 G96  0.0   0.1-    240217 106  0.1+  0.5-    240217 734  0.3+  0.0
240216 I52  0.1-  0.1+    240217 106  0.1-  0.2+    240217 734  0.5+  0.4+
240216 I52  0.0   0.1+    240217 106  0.2-  0.4+    240219 H21  0.1+  0.2+
240216 I52  0.2-  0.3-    240217 106  1.0+  1.6-    240219 H21  0.0   0.2-
240216 I52  0.0   0.4+    240217 H21  0.3+  0.2-    240219 H21  0.1-  0.0
240217 L01  0.5-  0.1+    240217 H21  0.0   0.0
240217 L01  0.2-  0.3-    240217 H21  0.3-  0.0

Ephemeris:
2024 DQ                  a,e,i = 0.98, 0.03, 5                   q = 0.9490
Date    TT    R. A. (2000) Decl.     Delta      r    Elong.  Phase     V
2024 01 20    13 58 21.9 +48 14 42   0.09360 1.0139   106.1    68.8    22.0
...
2024 02 04    14 42 50.3 +50 36 21   0.07897 1.0110   106.5    69.2    21.6
...
2024 02 12    15 06 35.9 +52 03 57   0.07014 1.0086   106.0    70.2    21.4
...
2024 02 18    15 25 12.0 +53 13 51   0.06314 1.0065   105.2    71.4    21.2
2024 02 19    15 28 27.8 +53 25 38   0.06194 1.0061   105.0    71.6    21.1
2024 02 20    15 31 47.8 +53 37 27   0.06073 1.0057   104.8    71.9    21.1
...
2024 02 26    15 53 50.7 +54 49 20   0.05331 1.0033   103.1    73.9    20.9
...
2024 03 05    16 32 58.5 +56 27 10   0.04302 0.9996    99.2    78.3    20.6
...
2024 03 20    19 11 32.3 +55 25 54   0.02398 0.9919    79.9    98.7    20.1

A. U. Tomatic                (C) Copyright 2024 MPC           M.P.E.C. 2024-D63





More information about the Iaude mailing list